This demonstration page uses our WeatherBlox Daily Observations layout. Learn more.

Left ArrowRight Arrow

Hourly Observations for July 3, 2021

Temp ( °F °C ) Dew Point ( °F °C ) Humidity (%) Winds ( mph kmh ) Pressure ( in mb ) Visibility ( mi km ) Precip ( " mm )
12:15 am 00:15 Clear 64 18 54 12 68 68 WNW 9 15 29.84 1011 10 16 N/A
12:35 am 00:35 Clear 63 17 54 12 73 73 WNW 7 11 29.85 1011 10 16 N/A
12:55 am 00:55 Clear 63 17 54 12 73 73 N N/A 29.86 1011 10 16 N/A
1:15 am 01:15 Clear 61 16 54 12 77 77 WNW 8 13 29.85 1011 10 16 N/A
1:35 am 01:35 Clear 61 16 54 12 77 77 WNW 8 13 29.85 1011 10 16 N/A
1:55 am 01:55 Clear 61 16 54 12 77 77 WNW 8 13 29.85 1011 10 16 N/A
2:15 am 02:15 Clear 61 16 54 12 77 77 NW 9 15 29.84 1010 10 16 N/A
2:35 am 02:35 Clear 61 16 54 12 77 77 NW 6 9 29.84 1010 10 16 N/A
2:55 am 02:55 Clear 61 16 54 12 77 77 WNW 10 17 29.83 1010 10 16 N/A
3:15 am 03:15 Clear 61 16 54 12 77 77 WNW 9 15 29.83 1010 10 16 N/A
3:35 am 03:35 Clear 61 16 54 12 77 77 NNW 7 11 29.83 1010 10 16 N/A
3:55 am 03:55 Clear 61 16 54 12 77 77 NNW 3 6 29.83 1010 10 16 N/A
4:15 am 04:15 Clear 61 16 54 12 77 77 NW 3 6 29.83 1010 10 16 N/A
4:35 am 04:35 Clear 61 16 54 12 77 77 NW 6 9 29.83 1010 10 16 N/A
4:55 am 04:55 Clear 59 15 54 12 82 82 NW 6 9 29.83 1010 10 16 N/A
5:15 am 05:15 Clear 61 16 54 12 77 77 N 5 7 29.83 1010 10 16 N/A
5:35 am 05:35 Clear 59 15 54 12 82 82 NNW 8 13 29.83 1010 10 16 N/A
5:55 am 05:55 Sunny 59 15 54 12 82 82 NNW 8 13 29.83 1010 10 16 N/A
6:15 am 06:15 Sunny 59 15 54 12 82 82 N 6 9 29.83 1010 10 16 N/A
6:35 am 06:35 Sunny 61 16 54 12 77 77 N 7 11 29.84 1010 10 16 N/A
6:55 am 06:55 Sunny 61 16 54 12 77 77 N 8 13 29.84 1010 10 16 N/A
7:15 am 07:15 Sunny 61 16 54 12 77 77 NNE 5 7 29.85 1011 10 16 N/A
7:35 am 07:35 Sunny 63 17 54 12 73 73 NNW 9 15 29.85 1011 10 16 N/A
8:15 am 08:15 Sunny 63 17 55 13 77 77 NNW 9 15 29.88 1012 10 16 N/A
8:35 am 08:35 Sunny 64 18 55 13 73 73 NNW 12 19 29.87 1012 10 16 N/A
8:55 am 08:55 Sunny 64 18 55 13 73 73 NNW 13 20 29.88 1012 10 16 N/A
9:15 am 09:15 Mostly Cloudy 66 19 55 13 68 68 N 7 11 29.88 1012 10 16 N/A
9:35 am 09:35 Mostly Cloudy 68 20 57 14 69 69 NNW 14 22 29.88 1012 10 16 N/A
9:55 am 09:55 Partly Cloudy 68 20 57 14 69 69 NNW 14 22 29.87 1012 10 16 N/A
10:15 am 10:15 Partly Cloudy 68 20 57 14 69 69 NW 14 22 29.87 1012 10 16 N/A
10:35 am 10:35 Partly Cloudy 68 20 57 14 69 69 NNW 17 28 29.86 1011 10 16 N/A
10:55 am 10:55 Partly Cloudy 70 21 57 14 64 64 N 12 19 29.86 1011 10 16 N/A
11:15 am 11:15 Mostly Cloudy 70 21 57 14 64 64 N 12 19 29.86 1011 10 16 N/A
11:35 am 11:35 Mostly Cloudy 72 22 59 15 65 65 NNW 16 26 29.86 1011 10 16 N/A
11:55 am 11:55 Mostly Cloudy 70 21 59 15 69 69 NNW 15 24 29.86 1011 10 16 N/A
12:15 pm 12:15 Mostly Cloudy 70 21 57 14 64 64 N 13 20 29.86 1011 10 16 N/A
12:35 pm 12:35 Cloudy 72 22 59 15 65 65 NW 13 20 29.85 1011 10 16 N/A
12:55 pm 12:55 Mostly Cloudy 72 22 59 15 65 65 NNW 13 20 29.85 1011 10 16 N/A
1:15 pm 13:15 Mostly Cloudy 72 22 59 15 65 65 NW 8 13 29.84 1010 10 16 N/A
1:35 pm 13:35 Mostly Cloudy 73 23 59 15 61 61 NW 15 24 29.83 1010 10 16 N/A
1:55 pm 13:55 Mostly Cloudy 75 24 55 13 50 50 N 15 24 29.82 1010 10 16 N/A
2:15 pm 14:15 Mostly Cloudy 73 23 59 15 61 61 NNW 12 19 29.82 1010 10 16 N/A
2:35 pm 14:35 Partly Cloudy 77 25 59 15 54 54 NW 18 30 29.81 1010 10 16 N/A
2:55 pm 14:55 Partly Cloudy 77 25 57 14 51 51 N 15 24 29.81 1010 10 16 N/A
3:15 pm 15:15 Partly Cloudy 77 25 57 14 51 51 NNW 20 31 29.80 1009 10 16 N/A
3:35 pm 15:35 Partly Cloudy 77 25 55 13 47 47 NNW 18 30 29.80 1009 10 16 N/A
3:55 pm 15:55 Mostly Cloudy 77 25 55 13 47 47 N 12 19 29.80 1009 10 16 N/A
4:15 pm 16:15 Partly Cloudy 77 25 55 13 47 47 N 12 19 29.79 1009 10 16 N/A
4:35 pm 16:35 Sunny 77 25 57 14 51 51 NNW 9 15 29.79 1009 10 16 N/A
4:55 pm 16:55 Partly Cloudy 77 25 55 13 47 47 NNW 16 26 29.79 1009 10 16 N/A
5:15 pm 17:15 Mostly Cloudy 77 25 55 13 47 47 NW 15 24 29.79 1009 10 16 N/A
5:35 pm 17:35 Mostly Cloudy 77 25 59 15 54 54 NNW 12 19 29.79 1009 10 16 N/A
5:55 pm 17:55 Partly Cloudy 77 25 59 15 54 54 NW 8 13 29.80 1009 10 16 N/A
6:15 pm 18:15 Sunny 77 25 59 15 54 54 NW 7 11 29.80 1009 10 16 N/A
6:35 pm 18:35 Sunny 77 25 57 14 51 51 N 5 7 29.80 1009 10 16 N/A
6:55 pm 18:55 Partly Cloudy 75 24 59 15 57 57 WNW 6 9 29.82 1010 10 16 N/A
7:15 pm 19:15 Mostly Cloudy 73 23 59 15 61 61 WNW 3 6 29.82 1010 10 16 N/A
7:35 pm 19:35 Mostly Cloudy 73 23 59 15 61 61 NNW 5 7 29.83 1010 10 16 N/A
7:55 pm 19:55 Cloudy with Heavy Rain 72 22 61 16 69 69 N 8 13 29.84 1010 10 16 N/A
8:15 pm 20:15 Cloudy 68 20 63 17 83 83 N N/A 29.84 1011 10 16 N/A
8:35 pm 20:35 Cloudy 68 20 63 17 83 83 N N/A 29.85 1011 10 16 N/A
8:55 pm 20:55 Cloudy 68 20 63 17 83 83 N N/A 29.85 1011 10 16 N/A
9:15 pm 21:15 Cloudy 64 18 63 17 94 94 N N/A 29.87 1012 10 16 N/A
9:35 pm 21:35 Cloudy 64 18 63 17 94 94 NNE 3 6 29.88 1012 10 16 N/A
9:55 pm 21:55 Mostly Cloudy 64 18 61 16 88 88 ENE 6 9 29.89 1012 10 16 N/A
10:15 pm 22:15 Cloudy 64 18 61 16 88 88 N N/A 29.90 1013 10 16 N/A
10:35 pm 22:35 Cloudy 64 18 61 16 88 88 N N/A 29.90 1013 10 16 N/A
10:55 pm 22:55 Cloudy 64 18 61 16 88 88 NE 3 6 29.91 1013 10 16 N/A
11:15 pm 23:15 Cloudy 64 18 61 16 88 88 NE 3 6 29.91 1013 10 16 N/A
11:55 pm 23:55 Clear 64 18 59 15 83 83 N N/A 29.91 1013 10 16 N/A

Powered by AerisWeather